OPS 4682 DEB, 38390

Orbit data source: Space-Track

OPS 4682 DEB, 38390 is space debris in LEO originally from a launch on Sat, 03 Apr 1965 UTC launched from the Air Force Western Test Range (AFWTR). Debris objects in space refer to the collection of defunct objects orbiting the Earth. Examples of debris include non-operational satellites, rocket bodies, and fragments generated from explosions, collisions, or faulty payload assembly.

Loading next visibility...
Identifier
38390, 1965-027CT
Orbit
LEO
Country
Flag of USUS
Related business
Manufacturer
Unknown
Mission
Spacecraft
Bus & Motor
Unknown
Mass
Unknown
Launch date (UTC)
1965-04-03 (61 years ago)
Launch vehicle
Unknown
Launch site
Air Force Western Test Range (AFWTR)
Object type
Payload
Rocket body
Debris
Shape & HBR
Unknown shape, 0.1 m
Radar Cross Section
Small (<0.1 m²)

Expand to show TLE details & history
Last TLE update: 1 week ago

TLE from 1 week ago
0 OPS 4682 DEB
1 38390U 65027CT  26242.07711895  .00000417  00000-0  14011-2 0  9998
2 38390  90.2369   0.5264 0030547 220.2171 139.6690 12.97796249622285
Epoch: 2026-08-30T01:51Z
TLE epoch observation values (Epoch: 2026-08-30T01:51:03.077Z)
Latitude
0.00002°
Longitude
-5.51431°
Altitude
1,291.458 km
Speed
7.202 km/s
True Right ascension
00h 02m 06s
True Declination
0° 00' 00"
Sunlit
Object was in full shadow at epoch
Visualization orbit readout
Latitude
Unknown
Longitude
Unknown
Altitude
Unknown
Speed
Unknown
Apparent Right ascension
Unknown
Apparent Declination
Unknown
Sunlit
N/A
Visualization observer readout
Local Sidereal Time
13:36:32
Azimuth
Unknown
Elevation
Unknown
Doppler factor
Unknown
Orbital elements
Apogee altitude
1,291.22 km
Perigee altitude
1,244.507 km
Semi-major axis
7,646.001 km
Eccentricity
0.00305
Inclination
90.2369°
RAAN
0.5264°
Arg. of periapsis
220.2171°
True anomaly
139.89489°
Mean anomaly
139.669°
Eccentric anomaly
139.78201°
Mean motion
3.24632 °/min
Orbital period
110.89 mins
BSTAR
0.0014011
Loading maneuver chart data...
Computing Atmospheric mass density...
Loading historical data...
Loading historical data...
Loading historical data...
Loading historical data...
Loading historical data...
Loading historical data...
Loading historical data...

Documentation

Showing up to 5 results
|